FW3276 Weather Reports


time (UTC)temp
C
wind
direction
speed
KPH
gust
KPH
rain 1hr
cm
rain 24hr
cm
rain mn
cm
humidity
%
barometer
mb
20260504100104 1 248 0.0 0.0 0.00 0.00 0.00 58 1012.8
20260504090108 1 248 0.0 0.0 0.00 0.00 0.00 58 1013.0
20260504081554 2 248 0.0 0.0 0.00 0.00 0.00 59 1013.1
20260504044526 4 244 1.6 4.8 0.00 0.00 0.00 52 1013.0
20260504043033 5 244 0.0 1.6 0.00 0.00 0.00 51 1012.8
20260504041522 5 244 0.0 0.0 0.00 0.00 0.00 48 1012.9
20260504040023 5 244 0.0 1.6 0.00 0.00 0.00 47 1012.8
20260504034518 6 244 0.0 0.0 0.00 0.00 0.00 46 1012.6
20260504033019 6 244 0.0 0.0 0.00 0.00 0.00 45 1012.5
20260504031517 6 244 0.0 1.6 0.00 0.00 0.00 44 1012.6
20260504030017 6 244 0.0 3.2 0.00 0.00 0.00 43 1012.5
20260504024516 7 244 0.0 3.2 0.00 0.00 0.00 43 1012.6
20260504023019 7 244 0.0 3.2 0.00 0.00 0.00 43 1012.6
20260504021515 7 244 3.2 8.0 0.00 0.00 0.00 41 1012.6
20260504020017 7 244 3.2 8.0 0.00 0.00 0.00 41 1012.5
20260504014514 8 234 1.6 6.4 0.00 0.00 0.00 40 1012.5
20260504013018 8 248 1.6 11.3 0.00 0.00 0.00 38 1012.4
20260504011520 8 261 1.6 9.7 0.00 0.00 0.00 37 1012.3
20260504010012 9 261 1.6 9.7 0.00 0.00 0.00 35 1012.1
20260504004511 10 260 3.2 11.3 0.00 0.00 0.00 32 1012.1
20260504003012 10 264 3.2 12.9 0.00 0.00 0.00 32 1011.8
20260504001511 11 271 3.2 19.3 0.00 0.00 0.00 31 1011.7
20260504000011 11 273 4.8 16.1 0.00 0.00 0.00 29 1011.7
20260503234510 11 251 6.4 14.5 0.00 0.00 0.00 27 1011.5
20260503233010 12 294 9.7 22.5 0.00 0.00 0.00 27 1011.2
20260503231514 12 257 9.7 20.9 0.00 0.00 0.00 26 1011.2
20260503230013 12 227 8.0 27.4 0.00 0.00 0.00 26 1011.2
20260503224512 12 303 6.4 25.7 0.00 0.00 0.00 26 1011.2
20260503223009 13 271 6.4 25.7 0.00 0.00 0.00 26 1011.1
20260503221508 13 300 3.2 20.9 0.00 0.00 0.00 25 1011.1
20260503220008 13 288 9.7 29.0 0.00 0.00 0.00 25 1011.2
20260503214506 13 336 4.8 24.1 0.00 0.00 0.00 25 1011.1
20260503213006 13 323 14.5 27.4 0.00 0.00 0.00 24 1011.0
20260503211505 14 234 9.7 24.1 0.00 0.00 0.00 23 1010.9
20260503210003 14 245 16.1 37.0 0.00 0.00 0.00 24 1011.0
20260503204505 13 284 9.7 22.5 0.00 0.00 0.00 26 1010.8
20260503203004 13 286 8.0 30.6 0.00 0.00 0.00 29 1010.9
20260503201601 13 257 11.3 37.0 0.00 0.00 0.00 22 1011.0
20260503200104 13 310 8.0 25.7 0.00 0.00 0.00 25 1011.0
20260503194602 13 251 17.7 32.2 0.00 0.00 0.00 22 1011.2
20260503193055 13 311 8.0 33.8 0.00 0.00 0.00 24 1011.6
20260503191553 13 313 11.3 24.1 0.00 0.00 0.00 22 1011.7
20260503190051 12 265 14.5 37.0 0.00 0.00 0.00 26 1011.7
20260503184600 12 250 12.9 25.7 0.00 0.00 0.00 25 1012.0
20260503183047 12 291 11.3 30.6 0.00 0.00 0.00 26 1012.0
20260503181547 12 284 3.2 24.1 0.00 0.00 0.00 28 1012.3
20260503180054 11 263 14.5 29.0 0.00 0.00 0.00 29 1012.1
20260503174545 11 287 11.3 27.4 0.00 0.00 0.00 28 1012.6
20260503173048 11 309 6.4 24.1 0.00 0.00 0.00 29 1012.5
20260503171540 10 110 4.8 24.1 0.00 0.00 0.00 27 1012.5